Ana Sayfa
METAR-TAF:

METAR-TAF

Havaalanları :

Indiana County Airport (Jimmy Stewart Field)

Indiana, Pensilvanya, Amerika Birleşik Devletleri

Enlem: 40-38N, Boylam: 079-06W, yükseklik: 429 m

Güncel hava durumu gözlemi

Rapor saat 00:15 UTC de 16 dakika önce yapıldı.
Rüzgar değişken yönden 5 kt ve 11 kt'a kadar ani rüzgarlar
Sıcaklık 0°C
Nem 55%
Basınç 1031 hPa
Görüş mesafesi: 16.1 km
Açık gökyüzü

METAR: KIDI 130015Z AUTO VRB05G11KT 10SM CLR M00/M08 A3046 RMK A01

Saat: 19:31 (00:31 UTC)


TAF: eksik

4.000'den fazla havaalanı için hava durumu gözlemleri ve tahminleri (METAR ve TAF raporları).

Kullanılabilir istasyonlar harita üzerinde sarı ve kırmızı noktalarla gösterilir.

İstasyonun adını görmek için fareyi noktanın üzerinde gezdirin.

Sonrasında hava gözlem ve tahminlerini görmek için tıklayın.

Haritayı değiştirmek için: yaklaştırmak için siyah artı işaretli yeşil düğmeye ve uzaklaştırmak için de eksi işaretli düğmeye hızla tıklayın; bitişik haritalar için yeşil okları kullanın.


METAR-TAF: